Home   Weather   Kaunas   Past weeks

Flag for Lithuania Past Weather in Kaunas, Lithuania — Yesterday and Last 2 Weeks

Now
25 °F

Light snow. Ice fog.


Feels Like: 20 °F
Forecast: 15 / 27 °F
Wind: 3 mph from South

Location: Kaunas

Current Time: Jan 16, 2017 at 1:14:35 pm

Latest Report: Jan 16, 2017 at 12:50 pm


Visibility: 2 mi

Pressure: 30.15 "Hg

Humidity: 93%

Dew Point: 23 °F

Location of KaunasLocation

Past Weather in Kaunas — Graph

°F

Kaunas Temperature Yesterday

Maximum temperature yesterday: 30 °F (at 12:20 am)
Minimum temperature yesterday: 28 °F (at 1:20 am)
Average temperature yesterday: 29 °F

High & Low Weather Summary for the Past Weeks

 TemperatureHumidityPressure
High37 °F (Jan 1, 12:20 pm)100% (Jan 4, 6:20 pm)30.63 "Hg (Jan 4, 6:20 pm)
Low-13 °F (Jan 7, 9:20 am)58% (Jan 11, 12:50 pm)29.00 "Hg (Jan 4, 5:50 am)
Average22 °F82%29.86 "Hg
* Reported Jan 1 12:20 pm — Jan 16 12:20 pm, Kaunas, Weather by CustomWeather, © 2017

Note: Actual official high and low records may vary slightly from our data, if they occured in-between our weather recording intervals... More about our weather records

Advertising

Kaunas Weather History for the Previous 24 Hours

Scroll right to see more
 ConditionsComfort  
Time TempWeatherWind HumidityBarometerVisibility
12:20 pm
Mon, Jan 16
25 °FIce fog.2 mph93%30.15 "Hg2 mi
11:50 am25 °FIce fog.2 mph93%30.15 "Hg2 mi
11:20 am25 °FLight snow. Ice fog.5 mph93%30.15 "Hg2 mi
10:50 am25 °FIce fog.2 mph93%30.12 "Hg2 mi
10:20 am25 °FIce fog.5 mph86%30.12 "Hg2 mi
9:50 am25 °FIce fog.6 mph93%30.12 "Hg2 mi
9:20 am25 °FLight snow. Ice fog.7 mph93%30.09 "Hg2 mi
8:50 am25 °FLight snow. Ice fog.5 mph93%30.09 "Hg2 mi
8:20 am27 °FLight snow. Ice fog.5 mph86%30.09 "Hg1 mi
7:50 am27 °FSnow. Ice fog.5 mph93%30.07 "Hg1 mi
7:20 am27 °FSnow. Ice fog.3 mph93%30.07 "Hg1 mi
6:50 am27 °FChilly.3 mph93%30.07 "Hg1 mi
6:36 am27 °FSnow. Ice fog.2 mph93%30.07 "Hg1 mi
6:20 am27 °FLight snow. Ice fog.2 mph93%30.07 "Hg2 mi
5:50 am27 °FLight snow. Ice fog.5 mph93%30.04 "Hg2 mi
5:20 am27 °FLight snow. Ice fog.5 mph93%30.04 "Hg2 mi
4:50 am27 °FLight snow. Ice fog.6 mph93%30.04 "Hg3 mi
4:20 am27 °FIce fog.7 mph93%30.04 "Hg3 mi
3:50 am27 °FIce fog.6 mph93%30.04 "Hg3 mi
3:20 am28 °FMostly cloudy.6 mph86%30.04 "Hg4 mi
2:50 am28 °FOvercast.6 mph86%30.04 "Hg4 mi
2:20 am28 °FMostly cloudy.6 mph86%30.01 "Hg4 mi
1:50 am28 °FOvercast.5 mph86%30.01 "Hg5 mi
1:20 am28 °FOvercast.3 mph86%30.01 "Hg5 mi
12:50 am28 °FOvercast.3 mph86%30.01 "Hg6 mi
12:20 am28 °FMostly cloudy.3 mph86%30.01 "Hg6 mi
11:50 pm
Sun, Jan 15
28 °FMostly cloudy.3 mph86%29.98 "Hg6 mi
11:20 pm28 °FOvercast.3 mph86%29.98 "Hg6 mi
10:50 pm28 °FOvercast.5 mph86%29.98 "Hg6 mi
10:20 pm28 °FOvercast.5 mph80%29.98 "Hg6 mi
9:50 pm28 °FOvercast.6 mph86%29.98 "HgN/A
9:20 pm28 °FOvercast.6 mph80%29.95 "HgN/A
8:50 pm28 °FOvercast.6 mph80%29.95 "HgN/A
8:20 pm28 °FOvercast.5 mph80%29.95 "HgN/A
7:50 pm28 °FOvercast.3 mph80%29.95 "Hg6 mi
7:20 pm28 °FOvercast.5 mph80%29.92 "HgN/A
6:50 pm28 °FOvercast.3 mph80%29.92 "HgN/A
6:20 pm28 °FOvercast.3 mph80%29.92 "HgN/A
5:50 pm28 °FOvercast.3 mph80%29.92 "HgN/A
5:20 pm28 °FOvercast.5 mph80%29.89 "HgN/A
4:50 pm28 °FOvercast.6 mph80%29.89 "HgN/A
4:20 pm28 °FOvercast.7 mph80%29.89 "HgN/A
3:50 pm28 °FOvercast.5 mph86%29.86 "HgN/A
3:20 pm28 °FLow clouds.6 mph86%29.86 "HgN/A
2:50 pm28 °FLow clouds.9 mph86%29.86 "HgN/A
2:20 pm28 °FLow clouds.7 mph86%29.83 "HgN/A
1:50 pm28 °FLow clouds.10 mph86%29.83 "HgN/A
1:20 pm28 °FLow clouds.9 mph93%29.80 "Hg6 mi
Weather by CustomWeather, © 2017

See weather overviewHow to use our weather pages